ARIANE 5 DEB (SYLDA), 43177

Orbit data source: Space-Track

ARIANE 5 DEB (SYLDA), 43177 is space debris in HEO originally from a launch on Thu, 25 Jan 2018 UTC launched from the French Guiana (FRGUI). Debris objects in space refer to the collection of defunct objects orbiting the Earth. Examples of debris include non-operational satellites, rocket bodies, and fragments generated from explosions, collisions, or faulty payload assembly.

Loading next visibility...
Identifier
43177, 2018-012D
Orbit
HEO
Country
Flag of FRFR
Related business
Manufacturer
ADS/Bremen
Mission
Spacecraft
Bus & Motor
SYLDA 5, Unknown motor
Mass
440 kg wet, 440 kg dry
Launch date (UTC)
2018-01-25 (8 years ago)
Launch vehicle
Unknown
Launch site
French Guiana (FRGUI)
Object type
Payload
Rocket body
Debris
Shape & HBR
Cyl, 2.8 m
Radar Cross Section
27.391 m², Large (>1 m²)

Expand to show TLE details & history
Last TLE update: 3 days ago

TLE from 3 days ago
0 ARIANE 5 DEB (SYLDA)
1 43177U 18012D   25305.28143522  .00040098  00000-0  94089-2 0  9999
2 43177  21.1508 306.2369 6869880 229.6481  46.6372  2.81266058 59850
Epoch: 2025-11-01T06:45Z
TLE epoch observation values (Epoch: 2025-11-01T06:45:16.003Z)
Latitude
-0.00001°
Longitude
164.04897°
Altitude
13,743.856 km
Speed
4.562 km/s
True Right ascension
20h 24m 43s
True Declination
0° 00' 00"
Sunlit
Object was in daylight at epoch
Visualization orbit readout
Latitude
Unknown
Longitude
Unknown
Altitude
Unknown
Speed
Unknown
Apparent Right ascension
Unknown
Apparent Declination
Unknown
Sunlit
N/A
Visualization observer readout
Local Sidereal Time
21:07:36
Azimuth
Unknown
Elevation
Unknown
Doppler factor
Unknown
Orbital elements
Apogee altitude
29,392.374 km
Perigee altitude
258.898 km
Semi-major axis
21,203.773 km
Eccentricity
0.68699
Inclination
21.1508°
RAAN
306.2369°
Arg. of periapsis
229.6481°
True anomaly
130.3355°
Mean anomaly
46.6372°
Eccentric anomaly
85.89787°
Mean motion
0.70295 °/min
Orbital period
512.13 mins
BSTAR
0.0094089
Loading maneuver chart data...
Computing Atmospheric mass density...
Loading historical data...
Loading historical data...
Loading historical data...
Loading historical data...
Loading historical data...
Loading historical data...
Loading historical data...
Other satellites on launch #12 in the year 2018 (2018-01-25 UTC)

Documentation

Showing up to 5 results
|